Location: Tafessasset
(32.5899°N, 5.4824°W)
Time: 05:18:35
(UTC+00:00)

USA 229 - Pass Details

Date: 18 February 2020
Orbit: 986 x 1226 km, 63.4° (Epoch: 26 March)

Event Time Altitude Azimuth Distance (km) Brightness Sun altitude
Exits shadow 04:41:13 50° 336° (NNW) 1,479 4.2 -30.4°
Maximum altitude 04:43:29 86° 60° (ENE) 1,207 3.8 -29.9°
Drops below altitude 10° 04:51:10 10° 150° (SSE) 3,167 6.4 -28.3°
Sets 04:53:57 0° 151° (SSE) 4,135 7.1 -27.7°
